Simultaneous Nadir Overpasses (SNOs) Predictions

Prediction of SNOs between LANDSAT-8 and NOAA-19 Satellite Orbit:

Table of predicted SNOs for the next 14.0 days since TLE Epoch: 2/9/2018
Index Date (LANDSAT-8) Time (LANDSAT-8) Lat,Lon (LANDSAT-8) SZA (LANDSAT-8 ) Date (NOAA-19) Time (NOAA-19) Lat,Lon (NOAA-19) SZA (NOAA-19 ) Distance(km) Time Diff (sec)
1 02/12/2018 00:07:59 -77.34, 10.70 88.80 02/12/2018 00:06:48 -77.40, 9.30 88.80 34.75 71
2 02/12/2018 00:57:29 77.15, 177.58 90.97 02/12/2018 00:57:39 77.17, 177.66 91.00 3.27 10
3 02/14/2018 05:41:35 77.64, 108.50 90.79 02/14/2018 05:40:31 77.68, 104.55 90.71 93.92 64
4 02/14/2018 06:31:12 -77.20, -85.65 89.72 02/14/2018 06:31:23 -77.18, -85.76 89.74 3.36 11
5 02/16/2018 11:15:19 -77.65,-154.92 89.97 02/16/2018 11:14:15 -77.71,-158.96 90.04 96.31 64
6 02/16/2018 12:04:55 77.18, 10.82 89.49 02/16/2018 12:04:59 77.17, 10.96 89.49 3.39 4
7 02/18/2018 17:38:39 -77.18, 107.42 91.29 02/18/2018 17:38:42 -77.18, 107.56 91.28 3.55 3
8 02/20/2018 23:12:21 77.20,-155.97 87.93 02/20/2018 23:12:20 77.23,-155.98 87.97 3.69 1
9 02/23/2018 04:46:05 -77.20, -59.37 92.87 02/23/2018 04:46:02 -77.24, -59.39 92.84 3.83 3




NCC Satellite Simultaneous Nadir Overpasses (SNOs) Prediction Service
